This demonstration page uses our WeatherBlox Daily Observations layout. Learn more.

Hourly Observations for January 14, 2016

Temp ( °F °C ) Dew Point ( °F °C ) Humidity (%) Winds ( mph kmh ) Pressure ( in mb ) Visibility ( mi km ) Precip ( " mm )
12:15 am 00:15 Clear 41 5 21 -6 45 45 SW 9 15 29.74 1007 10 16.09344 0 0
12:35 am 00:35 Clear 37 3 21 -6 52 52 SW 8 13 29.77 1008 10 16.09344 0 0
12:55 am 00:55 Clear 37 3 21 -6 52 52 SW 8 13 29.77 1008 10 16.09344 0 0
1:15 am 01:15 Clear 39 4 21 -6 48 48 SW 9 15 29.71 1006 10 16.09344 0 0
1:35 am 01:35 Clear 39 4 21 -6 48 48 WSW 12 19 29.71 1006 10 16.09344 0 0
1:55 am 01:55 Clear 39 4 21 -6 48 48 SW 12 19 29.68 1005 10 16.09344 0 0
2:15 am 02:15 Clear 39 4 19 -7 45 45 SW 12 19 29.68 1005 10 16.09344 0 0
2:35 am 02:35 Clear 39 4 19 -7 45 45 WSW 9 15 29.68 1005 10 16.09344 0 0
2:55 am 02:55 Clear 37 3 21 -6 52 52 SW 12 19 29.68 1005 10 16.09344 0 0
3:15 am 03:15 Clear 37 3 19 -7 48 48 WSW 8 13 29.68 1005 10 16.09344 0 0
3:35 am 03:35 Clear 37 3 19 -7 48 48 WSW 9 15 29.65 1004 10 16.09344 0 0
3:55 am 03:55 Clear 37 3 19 -7 48 48 WSW 7 11 29.65 1004 10 16.09344 0 0
4:15 am 04:15 Clear 36 2 19 -7 52 52 WSW 3 6 29.68 1005 10 16.09344 0 0
4:35 am 04:35 Clear 32 0 19 -7 60 60 Calm 29.68 1005 10 16.09344 0 0
4:55 am 04:55 Clear 32 0 19 -7 60 60 SSW 3 6 29.68 1005 10 16.09344 0 0
5:15 am 05:15 Clear 30 -1 21 -6 69 69 SW 5 7 29.71 1006 10 16.09344 0 0
5:35 am 05:35 Clear 30 -1 21 -6 69 69 SW 3 6 29.65 1004 10 16.09344 0 0
5:55 am 05:55 Clear 32 0 19 -7 60 60 WSW 3 6 29.68 1005 10 16.09344 0 0
6:15 am 06:15 Clear 30 -1 19 -7 64 64 SW 7 11 29.71 1006 10 16.09344 0 0
6:35 am 06:35 Clear 28 -2 19 -7 69 69 WSW 3 6 29.71 1006 10 16.09344 0 0
6:55 am 06:55 Clear 30 -1 19 -7 64 64 Calm 29.71 1006 10 16.09344 0 0
7:15 am 07:15 Clear 28 -2 19 -7 69 69 SW 5 7 29.71 1006 10 16.09344 0 0
7:35 am 07:35 Clear 30 -1 19 -7 64 64 SW 6 9 29.71 1006 10 16.09344 0 0
7:55 am 07:55 Clear 28 -2 19 -7 69 69 WSW 3 6 29.71 1006 10 16.09344 0 0
8:15 am 08:15 Sunny 30 -1 19 -7 64 64 W 8 13 29.71 1006 10 16.09344 0 0
8:35 am 08:35 Sunny 32 0 19 -7 60 60 W 9 15 29.68 1005 10 16.09344 0 0
8:55 am 08:55 Sunny 32 0 19 -7 60 60 W 8 13 29.65 1004 10 16.09344 0 0
9:15 am 09:15 Sunny 34 1 21 -6 60 60 W 9 15 29.65 1004 10 16.09344 0 0
9:35 am 09:35 Sunny 37 3 21 -6 52 52 WNW 7 11 29.62 1003 10 16.09344 0 0
9:55 am 09:55 Sunny 41 5 23 -5 49 49 WNW 7 11 29.62 1003 10 16.09344 0 0
10:15 am 10:15 Sunny 45 7 23 -5 42 42 WNW 9 15 29.59 1002 10 16.09344 0 0
10:35 am 10:35 Sunny 46 8 23 -5 40 40 WNW 10 17 29.59 1002 10 16.09344 0 0
10:55 am 10:55 Sunny 46 8 23 -5 40 40 NW 9 15 29.59 1002 10 16.09344 0 0
11:15 am 11:15 Sunny 48 9 25 -4 40 40 NW 13 20 29.56 1001 10 16.09344 0 0
11:35 am 11:35 Sunny 48 9 23 -5 37 37 NW 10 17 29.56 1001 10 16.09344 0 0
11:55 am 11:55 Sunny 50 10 27 -3 40 40 WNW 9 15 29.53 1000 10 16.09344 0 0
12:15 pm 12:15 Sunny 50 10 23 -5 35 35 WNW 9 15 29.53 1000 10 16.09344 0 0
12:35 pm 12:35 Sunny 52 11 25 -4 35 35 NW 13 20 29.53 1000 10 16.09344 0 0
12:55 pm 12:55 Sunny 55 13 23 -5 28 28 WNW 16 26 29.47 998 10 16.09344 0 0
1:15 pm 13:15 Sunny 55 13 23 -5 28 28 WNW 13 20 29.47 998 10 16.09344 0 0
1:35 pm 13:35 Sunny 55 13 25 -4 31 31 NW 13 20 29.47 998 10 16.09344 0 0
1:55 pm 13:55 Sunny 55 13 23 -5 28 28 NW 18 30 29.47 998 10 16.09344 0 0
2:15 pm 14:15 Sunny 55 13 23 -5 28 28 NW 17 28 29.44 997 10 16.09344 0 0
2:35 pm 14:35 Sunny 55 13 23 -5 28 28 NW 20 31 29.44 997 10 16.09344 0 0
2:55 pm 14:55 Sunny 54 12 21 -6 28 28 NW 20 31 29.44 997 10 16.09344 0 0
3:15 pm 15:15 Sunny 54 12 23 -5 30 30 NW 21 33 29.47 998 10 16.09344 0 0
3:35 pm 15:35 Sunny 54 12 23 -5 30 30 NW 22 35 29.47 998 10 16.09344 0 0
3:55 pm 15:55 Sunny 54 12 23 -5 30 30 WNW 15 24 29.47 998 10 16.09344 0 0
4:15 pm 16:15 Sunny 52 11 23 -5 32 32 WNW 13 20 29.5 999 10 16.09344 0 0
4:35 pm 16:35 Sunny 50 10 23 -5 35 35 NW 16 26 29.53 1000 10 16.09344 0 0
4:55 pm 16:55 Sunny 45 7 25 -4 46 46 NW 10 17 29.56 1001 10 16.09344 0 0
5:15 pm 17:15 Sunny 45 7 25 -4 46 46 WNW 12 19 29.56 1001 10 16.09344 0 0
5:35 pm 17:35 Clear 43 6 25 -4 49 49 WNW 13 20 29.59 1002 10 16.09344 0 0
5:55 pm 17:55 Clear 41 5 25 -4 53 53 WNW 13 20 29.62 1003 10 16.09344 0 0
6:15 pm 18:15 Clear 39 4 25 -4 56 56 WNW 8 13 29.62 1003 10 16.09344 0 0
6:35 pm 18:35 Clear 37 3 25 -4 60 60 WNW 10 17 29.62 1003 10 16.09344 0 0
6:55 pm 18:55 Clear 37 3 25 -4 60 60 W 10 17 29.62 1003 10 16.09344 0 0
7:15 pm 19:15 Clear 36 2 25 -4 65 65 W 9 15 29.68 1005 10 16.09344 0 0
7:35 pm 19:35 Clear 37 3 27 -3 65 65 W 9 15 29.65 1004 10 16.09344 0 0
7:55 pm 19:55 Clear 36 2 27 -3 70 70 WNW 7 11 29.62 1003 10 16.09344 0 0
8:15 pm 20:15 Clear 36 2 27 -3 70 70 WNW 8 13 29.62 1003 10 16.09344 0 0
8:35 pm 20:35 Clear 36 2 27 -3 70 70 WNW 8 13 29.62 1003 10 16.09344 0 0
8:55 pm 20:55 Clear 37 3 28 -2 70 70 WNW 12 19 29.62 1003 10 16.09344 0 0
9:15 pm 21:15 Clear 36 2 28 -2 75 75 WNW 13 20 29.68 1005 10 16.09344 0 0
9:35 pm 21:35 Partly Cloudy 37 3 28 -2 70 70 WNW 13 20 29.65 1004 10 16.09344 0 0
9:55 pm 21:55 Mostly Cloudy 37 3 30 -1 75 75 NW 10 17 29.65 1004 10 16.09344 0 0
10:15 pm 22:15 Partly Cloudy 36 2 30 -1 81 81 NW 10 17 29.68 1005 10 16.09344 0 0
10:35 pm 22:35 Partly Cloudy 36 2 30 -1 81 81 NW 12 19 29.68 1005 10 16.09344 0 0
10:55 pm 22:55 Clear 36 2 30 -1 81 81 NW 10 17 29.71 1006 10 16.09344 0 0
11:15 pm 23:15 Partly Cloudy 36 2 30 -1 81 81 NW 12 19 29.71 1006 10 16.09344 0 0
11:35 pm 23:35 Partly Cloudy 36 2 30 -1 81 81 NNW 13 20 29.71 1006 10 16.09344 0 0
11:50 pm 23:50 Mostly Cloudy 36 2 30 -1 81 81 NNW 14 22 29.71 1006 10 16.09344 0 0

Powered by AerisWeather